DW7485 Weather Reports


Display with metric or nautical units.
time (UTC)temp
F
wind
direction
speed
MPH
gust
MPH
rain 1hr
in
rain 24hr
in
rain mn
in
humidity
%
barometer
mb
20190620210210 74 1 0.0 0.0 0.00 0.09 0.01 62 1007.2
20190620204609 73 22 0.0 0.0 0.00 0.11 0.01 62 1007.2
20190620203136 73 323 0.0 0.0 0.00 0.11 0.01 61 1007.5
20190620201614 74 8 0.0 0.0 0.00 0.11 0.01 60 1007.5
20190620200151 74 319 0.0 0.0 0.00 0.11 0.01 62 1007.3
20190620194756 75 12 0.0 0.0 0.00 0.13 0.01 60 1007.6
20190620193113 74 280 0.0 0.0 0.00 0.13 0.01 60 1007.6
20190620191701 74 113 0.0 0.0 0.00 0.13 0.01 62 1007.4
20190620190115 74 16 0.0 0.0 0.00 0.13 0.01 61 1007.3
20190620184613 74 293 0.0 0.0 0.00 0.13 0.01 61 1007.3
20190620183139 72 50 0.0 0.0 0.00 0.13 0.01 66 1007.5
20190620181559 71 30 0.0 0.0 0.00 0.13 0.01 68 1007.4
20190620180056 72 334 0.0 0.0 0.00 0.13 0.01 67 1007.3
20190620174551 72 15 0.0 0.0 0.00 0.13 0.01 69 1007.1
20190620173035 71 51 0.0 0.0 0.00 0.13 0.01 68 1007.3
20190620171536 72 41 0.0 1.0 0.00 0.13 0.01 69 1007.1
20190620170111 71 334 0.0 0.0 0.00 0.13 0.01 70 1006.9
20190620164558 70 8 0.0 0.0 0.00 0.13 0.01 71 1006.7
20190620163033 71 4 0.0 0.0 0.00 0.13 0.01 70 1006.4
20190620161547 71 354 0.0 1.0 0.00 0.13 0.01 72 1006.3
20190620160035 70 20 0.0 0.0 0.00 0.13 0.01 73 1006.1
20190620154522 70 343 0.0 0.0 0.00 0.13 0.01 75 1006.0
20190620153024 69 344 0.0 1.0 0.00 0.13 0.01 78 1005.8
20190620151543 68 345 0.0 4.0 0.00 0.13 0.01 79 1006.3
20190620150010 67 291 0.0 3.0 0.00 0.13 0.01 81 1006.2
20190620144514 67 41 0.0 0.0 0.00 0.16 0.01 82 1006.4
20190620143005 65 22 0.0 8.0 0.00 0.16 0.01 84 1006.9
20190620141943 65 33 0.0 1.0 0.00 0.16 0.01 87 1006.5
20190620140152 65 316 0.0 0.0 0.00 0.16 0.01 88 1006.4
20190620134704 63 312 0.0 0.0 0.00 0.20 0.01 93 1006.1
20190620133200 61 110 0.0 3.0 0.01 0.20 0.01 98 1005.3
20190620131728 60 17 0.0 3.0 0.01 0.20 0.01 98 1005.4
20190620130139 60 17 0.0 0.0 0.01 0.20 0.01 99 1005.1
20190620124645 59 352 0.0 1.0 0.01 0.27 0.01 99 1005.5
20190620123131 59 13 0.0 0.0 0.00 0.26 0.00 99 1005.6
20190620121615 58 23 0.0 0.0 0.00 0.26 0.00 99 1005.9
20190620120126 57 323 0.0 0.0 0.00 0.26 0.00 99 1005.9
20190620114630 57 15 0.0 0.0 0.00 0.27 0.00 99 1005.7
20190620113134 57 309 0.0 0.0 0.00 0.27 0.00 99 1005.9
20190620111637 56 308 0.0 0.0 0.00 0.27 0.00 99 1005.9
20190620110145 55 311 0.0 0.0 0.00 0.27 0.00 99 1005.9
20190620104546 55 285 0.0 0.0 0.00 0.27 0.00 99 1005.7
20190620103110 55 266 0.0 0.0 0.00 0.27 0.00 99 1005.5
20190620101542 55 242 0.0 0.0 0.00 0.27 0.00 99 1004.9
20190620100105 55 294 0.0 0.0 0.00 0.27 0.00 99 1004.7
20190620094547 55 298 0.0 0.0 0.00 0.28 0.00 99 1004.5
20190620093106 56 296 0.0 0.0 0.00 0.28 0.00 99 1004.4
20190620091602 56 356 0.0 0.0 0.00 0.28 0.00 99 1004.3
20190620090043 56 44 0.0 0.0 0.00 0.28 0.00 99 1004.2
20190620084529 56 308 0.0 0.0 0.00 0.30 0.00 99 1004.1
20190620083039 56 304 0.0 0.0 0.00 0.30 0.00 99 1004.0
20190620081605 56 307 0.0 0.0 0.00 0.30 0.00 99 1003.9
20190620080043 56 304 0.0 0.0 0.00 0.30 0.00 99 1003.9
20190620074546 56 287 0.0 0.0 0.00 0.31 0.00 99 1003.9
20190620073027 56 17 0.0 0.0 0.00 0.31 0.00 99 1003.8
20190620071522 56 350 0.0 0.0 0.00 0.31 0.00 99 1003.9
20190620070038 56 9 0.0 0.0 0.00 0.31 0.00 99 1003.8
20190620064521 56 25 0.0 0.0 0.00 0.31 0.00 99 1003.7
20190620063105 57 26 0.0 0.0 0.00 0.31 0.00 99 1003.7
20190620061513 58 41 0.0 0.0 0.00 0.31 0.00 99 1003.9
20190620060040 58 357 0.0 0.0 0.00 0.31 0.00 99 1004.0
20190620054539 58 32 0.0 0.0 0.00 0.31 0.00 99 1004.3
20190620053016 58 41 0.0 0.0 0.00 0.31 0.00 99 1004.4
20190620051529 58 20 0.0 0.0 0.00 0.31 0.00 99 1004.5
20190620050001 59 22 0.0 0.0 0.00 0.31 0.00 99 1004.5
20190620044724 59 49 0.0 0.0 0.00 0.31 0.31 99 1004.6
20190620043152 59 37 0.0 0.0 0.00 0.31 0.31 99 1004.6
20190620041658 59 37 0.0 0.0 0.00 0.31 0.31 99 1004.8
20190620040118 59 56 0.0 0.0 0.00 0.31 0.31 99 1004.9
20190620034636 59 43 0.0 0.0 0.00 0.31 0.31 99 1004.9
20190620033122 60 44 0.0 0.0 0.00 0.31 0.31 99 1004.9
20190620031636 60 76 0.0 0.0 0.00 0.31 0.31 99 1005.0
20190620030235 60 75 0.0 0.0 0.00 0.31 0.31 99 1004.7
20190620024632 60 53 0.0 0.0 0.00 0.31 0.31 99 1004.6
20190620023059 60 34 0.0 1.0 0.00 0.31 0.31 99 1004.2
20190620021721 60 32 0.0 0.0 0.00 0.31 0.31 99 1004.2
20190620020125 60 22 0.0 4.0 0.00 0.31 0.31 99 1004.1
20190620014711 60 17 0.0 0.0 0.00 0.31 0.31 99 1004.1
20190620013122 60 51 0.0 0.0 0.01 0.31 0.31 99 1004.2
20190620011609 61 28 0.0 0.0 0.01 0.31 0.31 99 1004.2
20190620010101 60 57 0.0 1.0 0.02 0.31 0.31 99 1004.3
20190620004724 60 17 0.0 0.0 0.03 0.31 0.31 99 1004.3
20190620003131 61 59 0.0 0.0 0.02 0.30 0.30 99 1004.3
20190620001609 61 42 0.0 1.0 0.02 0.30 0.30 99 1004.3
20190620000132 61 19 0.0 0.0 0.02 0.28 0.28 99 1004.4
20190619234630 61 69 0.0 2.0 0.02 0.28 0.28 99 1004.4
20190619233128 62 68 0.0 0.0 0.03 0.28 0.28 99 1004.4
20190619231630 62 126 0.0 2.0 0.04 0.28 0.28 99 1004.4
20190619230117 62 15 0.0 10.0 0.02 0.26 0.26 99 1004.4
20190619224619 63 3 0.0 2.0 0.02 0.26 0.26 99 1004.4
20190619223112 63 47 0.0 0.0 0.01 0.25 0.25 99 1004.4
20190619221553 63 45 0.0 0.0 0.01 0.24 0.24 99 1004.5
20190619220052 63 60 0.0 0.0 0.01 0.24 0.24 99 1004.5
20190619214543 63 83 0.0 0.0 0.01 0.24 0.24 98 1004.5
20190619213059 63 50 0.0 1.0 0.02 0.24 0.24 99 1004.6
20190619211611 64 352 0.0 1.0 0.01 0.23 0.23 99 1004.6